THAICOM 6

Last updated on Tue Sep 16 2025 00:02:48 GMT+0000 (Coordinated Universal Time)

1 39500U 14002A 25258.61440187 -.00000138 00000+0 00000+0 0 9998 2 39500 0.0599 109.2407 0004415 78.4549 106.8223 1.00272022 42707
UTC large
Height (km)
Speed (km/s)
/
Latitude / Longitude
Inclination (degrees)
Orbital Period (minutes)
Azimuth
Elevation
Range (km)
Doppler Factor

Next 0 passes for location: London (51.5072 / 0.1276)

Sorry there are no passes over London.